When you browse on this site, cookies collect data to enhance your experience and personalize the content and advertising you see.
Visit our Privacy Policy to learn more. By continuing to use the site, you agree to this use of cookies and data.
  • In Hungary
  • List of Countries
  • For 7 days
  • Water Temperature
  • Satellite Maps
  • Weather Map
  • News
  • Weather Widgets
  • user-avatar
    Login

    Hourly Weather Caparica

    Today, 22 July, Monday

    Time Temperature Precipitation Wind Pressure Humidity
    00:00 +18°C° 0 mm 4 mps 756 mmHg 80%
    01:00 +18°C° 0 mm 3 mps 756 mmHg 82%
    02:00 +18°C° 0 mm 2 mps 755 mmHg 84%
    03:00 +18°C° 0 mm 2 mps 755 mmHg 85%
    04:00 +18°C° 0 mm 2 mps 756 mmHg 86%
    05:00 +18°C° 0 mm 2 mps 756 mmHg 86%
    06:00 +20°C° 0 mm 2 mps 756 mmHg 76%
    07:00 +23°C° 0 mm 2 mps 756 mmHg 66%
    08:00 +26°C° 0 mm 2 mps 756 mmHg 57%
    09:00 +28°C° 0 mm 3 mps 756 mmHg 51%
    10:00 +30°C° 0 mm 3 mps 756 mmHg 45%
    11:00 +31°C° 0 mm 3 mps 756 mmHg 39%
    12:00 +33°C° 0 mm 4 mps 755 mmHg 38%
    13:00 +33°C° 0 mm 5 mps 755 mmHg 38%
    14:00 +33°C° 0 mm 5 mps 755 mmHg 37%
    15:00 +32°C° 0 mm 5 mps 755 mmHg 42%
    16:00 +29°C° 0 mm 6 mps 754 mmHg 47%
    17:00 +28°C° 0 mm 6 mps 754 mmHg 51%
    18:00 +26°C° 0 mm 6 mps 754 mmHg 61%
    19:00 +23°C° 0 mm 6 mps 754 mmHg 70%
    20:00 +21°C° 0 mm 6 mps 755 mmHg 79%
    21:00 +20°C° 0 mm 5 mps 754 mmHg 82%
    22:00 +20°C° 0 mm 4 mps 754 mmHg 84%
    23:00 +20°C° 0 mm 3 mps 754 mmHg 86%

    Tomorrow, 23 July, Tuesday

    Time Temperature Precipitation Wind Pressure Humidity
    00:00 +19°C° 0 mm 3 mps 754 mmHg 87%
    01:00 +19°C° 0 mm 3 mps 754 mmHg 88%
    02:00 +19°C° 0 mm 3 mps 754 mmHg 88%
    03:00 +19°C° 0 mm 3 mps 754 mmHg 89%
    04:00 +19°C° 0 mm 4 mps 754 mmHg 90%
    05:00 +19°C° 0 mm 4 mps 754 mmHg 90%
    06:00 +20°C° 0 mm 4 mps 754 mmHg 82%
    07:00 +22°C° 0 mm 4 mps 754 mmHg 74%
    08:00 +24°C° 0 mm 3 mps 754 mmHg 66%
    09:00 +27°C° 0 mm 3 mps 754 mmHg 58%
    10:00 +29°C° 0 mm 4 mps 754 mmHg 49%
    11:00 +32°C° 0 mm 4 mps 755 mmHg 41%
    12:00 +32°C° 0 mm 6 mps 754 mmHg 41%
    13:00 +32°C° 0 mm 7 mps 754 mmHg 41%
    14:00 +31°C° 0 mm 8 mps 754 mmHg 41%
    15:00 +29°C° 0 mm 8 mps 754 mmHg 43%
    16:00 +28°C° 0 mm 7 mps 754 mmHg 46%
    17:00 +27°C° 0 mm 7 mps 754 mmHg 49%
    18:00 +24°C° 0 mm 7 mps 754 mmHg 55%
    19:00 +23°C° 0 mm 6 mps 754 mmHg 61%
    20:00 +21°C° 0 mm 5 mps 754 mmHg 67%
    21:00 +21°C° 0 mm 5 mps 754 mmHg 68%
    22:00 +20°C° 0 mm 4 mps 754 mmHg 69%
    23:00 +20°C° 0 mm 3 mps 754 mmHg 70%

    Day after tomorrow, 24 July, Wednesday

    Time Temperature Precipitation Wind Pressure Humidity
    00:00 +19°C° 0 mm 3 mps 753 mmHg 73%
    01:00 +19°C° 0 mm 3 mps 753 mmHg 75%
    02:00 +19°C° 0 mm 3 mps 753 mmHg 77%
    03:00 +19°C° 0 mm 2 mps 753 mmHg 78%
    04:00 +18°C° 0 mm 2 mps 753 mmHg 79%
    05:00 +19°C° 0 mm 1 mps 753 mmHg 80%
    06:00 +21°C° 0 mm 2 mps 753 mmHg 70%
    07:00 +24°C° 0 mm 2 mps 753 mmHg 59%
    08:00 +26°C° 0 mm 2 mps 753 mmHg 48%
    09:00 +28°C° 0 mm 3 mps 753 mmHg 42%
    10:00 +30°C° 0 mm 3 mps 753 mmHg 37%
    11:00 +33°C° 0 mm 3 mps 753 mmHg 31%
    12:00 +33°C° 0 mm 4 mps 752 mmHg 33%
    13:00 +32°C° 0 mm 5 mps 752 mmHg 34%
    14:00 +32°C° 0 mm 5 mps 752 mmHg 36%
    15:00 +30°C° 0 mm 5 mps 752 mmHg 44%
    16:00 +29°C° 0 mm 5 mps 752 mmHg 51%
    17:00 +27°C° 0 mm 5 mps 752 mmHg 59%
    18:00 +26°C° 0 mm 4 mps 752 mmHg 68%
    19:00 +23°C° 0 mm 4 mps 753 mmHg 77%
    20:00 +22°C° 0 mm 3 mps 753 mmHg 85%
    21:00 +21°C° 0 mm 2 mps 753 mmHg 87%
    22:00 +21°C° 0 mm 2 mps 753 mmHg 90%
    23:00 +21°C° 0 mm 2 mps 753 mmHg 92%

    25 July, Thursday

    Time Temperature Precipitation Wind Pressure Humidity
    00:00 +22°C° 0 mm 1 mps 753 mmHg 92%
    01:00 +22°C° 0 mm 1 mps 752 mmHg 93%
    02:00 +22°C° 0 mm 1 mps 752 mmHg 94%
    03:00 +22°C° 0 mm 1 mps 752 mmHg 93%
    04:00 +22°C° 0 mm 1 mps 753 mmHg 92%
    05:00 +22°C° 0 mm 1 mps 753 mmHg 92%
    06:00 +23°C° 0 mm 1 mps 753 mmHg 85%
    07:00 +24°C° 0 mm 1 mps 753 mmHg 77%
    08:00 +25°C° 0 mm 1 mps 753 mmHg 70%
    09:00 +27°C° 0 mm 2 mps 753 mmHg 63%
    10:00 +28°C° 0 mm 3 mps 753 mmHg 55%
    11:00 +29°C° 0 mm 3 mps 753 mmHg 48%
    12:00 +29°C° 0 mm 4 mps 753 mmHg 49%
    13:00 +29°C° 0 mm 5 mps 753 mmHg 51%
    14:00 +29°C° 0 mm 5 mps 753 mmHg 53%
    15:00 +28°C° 0 mm 6 mps 753 mmHg 57%
    16:00 +27°C° 0 mm 6 mps 753 mmHg 61%
    17:00 +26°C° 0 mm 6 mps 753 mmHg 65%
    18:00 +23°C° 0 mm 6 mps 754 mmHg 69%
    19:00 +22°C° 0 mm 6 mps 754 mmHg 74%
    20:00 +21°C° 0 mm 6 mps 754 mmHg 78%
    21:00 +20°C° 0 mm 6 mps 755 mmHg 78%
    22:00 +20°C° 0 mm 6 mps 755 mmHg 78%
    23:00 +19°C° 0 mm 5 mps 755 mmHg 78%

    26 July, Friday

    Time Temperature Precipitation Wind Pressure Humidity
    00:00 +19°C° 0 mm 5 mps 755 mmHg 80%
    01:00 +19°C° 0 mm 5 mps 755 mmHg 81%
    02:00 +17°C° 0 mm 5 mps 755 mmHg 83%
    03:00 +17°C° 0 mm 5 mps 755 mmHg 84%
    04:00 +17°C° 0 mm 6 mps 755 mmHg 85%
    05:00 +17°C° 0 mm 6 mps 755 mmHg 86%
    06:00 +18°C° 0 mm 7 mps 755 mmHg 77%
    07:00 +21°C° 0 mm 7 mps 755 mmHg 68%
    08:00 +22°C° 0 mm 8 mps 756 mmHg 59%
    09:00 +23°C° 0 mm 8 mps 756 mmHg 55%
    10:00 +24°C° 0 mm 9 mps 756 mmHg 51%
    11:00 +26°C° 0 mm 9 mps 756 mmHg 47%
    12:00 +26°C° 0 mm 9 mps 755 mmHg 47%
    13:00 +26°C° 0 mm 10 mps 755 mmHg 47%
    14:00 +26°C° 0 mm 10 mps 755 mmHg 48%
    15:00 +24°C° 0 mm 10 mps 755 mmHg 50%
    16:00 +23°C° 0 mm 10 mps 755 mmHg 53%
    17:00 +22°C° 0 mm 10 mps 755 mmHg 55%
    18:00 +21°C° 0 mm 10 mps 755 mmHg 60%
    19:00 +18°C° 0 mm 9 mps 756 mmHg 65%
    20:00 +17°C° 0 mm 9 mps 756 mmHg 70%
    21:00 +17°C° 0 mm 9 mps 756 mmHg 71%
    22:00 +17°C° 0 mm 9 mps 756 mmHg 72%
    23:00 +17°C° 0 mm 9 mps 756 mmHg 74%

    27 July, Saturday

    Time Temperature Precipitation Wind Pressure Humidity
    00:00 +17°C° 0 mm 9 mps 756 mmHg 74%
    01:00 +17°C° 0 mm 8 mps 755 mmHg 74%
    02:00 +17°C° 0 mm 8 mps 755 mmHg 75%
    03:00 +17°C° 0 mm 8 mps 755 mmHg 76%
    04:00 +17°C° 0 mm 8 mps 755 mmHg 78%
    05:00 +16°C° 0 mm 8 mps 755 mmHg 80%
    06:00 +18°C° 0 mm 8 mps 755 mmHg 71%
    07:00 +21°C° 0 mm 8 mps 755 mmHg 62%
    08:00 +23°C° 0 mm 8 mps 755 mmHg 53%
    09:00 +24°C° 0 mm 8 mps 755 mmHg 49%
    10:00 +27°C° 0 mm 8 mps 755 mmHg 45%
    11:00 +29°C° 0 mm 8 mps 755 mmHg 41%
    12:00 +29°C° 0 mm 8 mps 755 mmHg 39%
    13:00 +29°C° 0 mm 9 mps 754 mmHg 37%
    14:00 +29°C° 0 mm 9 mps 754 mmHg 34%
    15:00 +28°C° 0 mm 9 mps 754 mmHg 36%
    16:00 +27°C° 0 mm 10 mps 754 mmHg 37%
    17:00 +26°C° 0 mm 10 mps 754 mmHg 39%
    18:00 +23°C° 0 mm 10 mps 754 mmHg 50%
    19:00 +22°C° 0 mm 9 mps 754 mmHg 61%
    20:00 +21°C° 0 mm 9 mps 755 mmHg 73%
    21:00 +21°C° 0 mm 8 mps 754 mmHg 75%
    22:00 +20°C° 0 mm 8 mps 754 mmHg 77%
    23:00 +20°C° 0 mm 8 mps 754 mmHg 80%
    Show more